GFSNE_prec_radar_003.txt.gz
Reflectivity
5 0 4 9 3 -14 5 7 9 20 -2 -3 29 30 22 26 12 -20 -20 -20 -20 -20 -20 -20 -20 -20 -20 -20 -20 -20 -20 -20 -20 -20 -20 -20 -20 -20
8 -6 -20 -20 -20 -8 0 11 12 0 3 -12 -20 -7 -7 -2 8 -6 -20 -20 -20 -20 -20 -20 -20 -20 -20 -20 -20 -20 -20 -20 -20 -20 -20 -20 -20 -20
11 9 6 -11 -20 -20 -20 -20 -20 -15 -20 -20 -20 -17 -20 -13 -1 -15 -6 -20 -20 -20 -20 -20 -20 -20 -20 -20 -20 -20 -20 -20 -20 -20 -20 -20 -20 -20
2 5 -19 -10 -14 -20 -20 -20 -20 -20 -20 -20 -20 -20 -20 -20 -20 -20 -20 -20 -20 -20 -20 -20 -20 -20 -20 -20 -20 -20 -20 -20 -20 -20 -20 -20 -20 -20
-20 -20 -20 -20 -20 -20 -20 -20 -20 -20 -20 -20 -20 -20 -20 -20 -20 -20 -20 -20 -20 -20 -20 -20 -20 -20 -20 -20 -20 -20 -20 -20 -20 -20 -20 -20 -20 -20
-20 -20 -20 -20 -20 -11 -20 -20 -20 -20 -20 -20 -20 -20 -20 -20 -20 -20 -20 -20 -20 -20 -20 -20 -20 -20 -20 -20 -20 -20 -20 -20 -20 -20 -20 -20 -20 -20
-20 -20 -20 -9 -20 -20 -20 -20 -20 -20 -20 -20 -20 -20 -20 -20 -20 -20 -20 -20 -20 -20 -20 -20 -20 -17 -20 -20 -20 -20 -20 -20 -20 -20 -20 -20 -20 -20
-20 -20 -20 -20 -15 2 2 -20 -20 -20 -20 -20 -20 -20 -20 -20 -20 -20 -20 -20 2 -20 -20 -20 -20 -20 -20 -2 14 6 -20 -20 -20 -20 -20 -20 -20 6
-20 -15 -20 -20 -20 -20 -20 -16 -11 -16 -20 -4 -14 -10 -13 -20 -13 -5 -13 5 7 -20 -5 -20 1 0 -19 -20 -20 -20 -20 -20 -16 -20 -20 -20 -20 -18
-12 -9 -3 -20 -20 -7 -16 -8 -20 -20 2 5 -5 -9 -4 -9 -6 -7 1 -5 8 -0 -1 10 -11 -3 -17 -20 -20 -20 -20 -20 -20 -20 -20 -20 -20 4
2 2 2 -16 -20 -20 -18 9 8 7 3 -18 -20 -20 -20 -20 -17 8 13 17 14 4 -16 9 2 -5 12 -17 17 -20 -20 -20 -20 -20 -20 -20 -20 -17
11 5 6 6 8 -14 14 14 14 11 4 10 10 12 12 -17 -20 -20 -2 10 8 4 -19 13 10 10 15 6 -19 -20 -20 -20 -20 -20 -20 -20 -20 -20
11 2 -5 18 -9 -7 -9 -6 3 -2 -10 -3 -0 -5 -9 -2 6 6 -20 6 -4 4 -20 10 23 10 14 10 -20 -13 13 12 -10 -20 -20 -20 -20 -20
11 10 17 -17 -20 -20 -20 -20 -20 -20 -0 5 10 8 11 4 0 5 9 18 14 11 -8 11 12 7 14 17 16 11 11 -16 10 5 -8 -1 -20 -20
16 -2 8 0 -6 -16 12 -20 -20 9 14 9 9 11 11 12 9 11 10 15 16 10 2 8 13 9 26 15 15 -7 17 15 20 -13 2 -20 3 -10
3 1 7 5 6 13 16 13 14 12 6 9 11 6 6 10 15 10 14 11 17 13 5 -2 3 16 16 13 12 12 19 17 26 16 -18 -17 18 32
-10 9 6 3 6 13 11 10 10 7 8 4 8 5 5 5 1 16 6 15 18 15 17 16 -20 -20 5 9 17 -0 14 -0 18 18 17 13 -3 -16
7 3 6 5 10 12 10 9 7 4 2 3 6 7 7 2 1 13 10 6 9 15 17 16 15 11 5 -6 -11 -18 -11 7 -1 13 23 6 12 17
2 2 3 7 -0 -20 -2 1 1 7 6 7 7 3 6 -1 4 9 11 15 11 1 7 14 17 17 14 9 -19 -20 3 2 -4 11 -20 27 7 -8
-1 3 2 0 -2 -4 -3 4 6 8 8 10 8 7 5 6 9 6 6 -18 -5 7 15 9 8 -6 9 9 14 -8 8 -5 -4 6 5 23 3 -20
-15 -20 -4 -2 1 3 6 6 11 9 9 9 9 10 5 9 7 6 -17 5 -20 -14 -13 -3 -20 -20 -20 -7 4 -0 -11 -20 -20 -14 -4 13 -1 -12
-20 -20 -5 -1 2 2 4 6 1 6 6 4 6 12 11 9 8 7 6 -0 -2 -0 -19 -15 -9 -20 4 -14 5 -14 3 -20 -20 -20 -20 -20 -11 5
-5 -3 -3 -1 -1 -1 -2 3 3 -19 2 1 3 6 11 10 9 8 8 8 4 -18 -3 -19 3 -0 -17 -20 -20 -1 -20 1 6 9 -9 -20 -20 -20

GFSNE_prec_radar_009.txt.gz
Reflectivity
-20 8 2 -16 -3 15 9 21 29 -1 -20 -20 -20 -20 -20 -0 2 -12 26 23 33 30 -3 0 25 11 3 -10 -20 -20 -20 -20 -20 -20 -20 -20 -20 -20
-12 6 7 19 19 -0 25 37 32 18 5 -20 -20 -20 -20 -6 -5 -14 27 33 37 36 33 21 -20 1 -1 -20 -20 -20 -20 -20 -20 -20 -20 -20 -20 -20
-11 -20 -20 -20 -20 3 -2 -8 -5 3 19 -20 -20 -20 -20 -20 -20 4 5 10 28 16 14 5 -20 -19 -18 -20 -20 -20 -20 -20 -20 -20 -20 -20 -20 -20
-20 -20 -20 -20 -20 -20 -20 -19 -20 -20 -20 -20 -20 -20 -20 -20 -20 -20 -19 14 14 25 23 4 -15 -20 -20 -20 -20 -20 -20 -20 -20 -20 -20 -20 -20 -20
-20 -20 -20 -20 -20 -20 -20 -20 -20 -20 -20 -20 -20 -20 -20 -20 -20 -20 -20 -15 19 21 4 -20 -20 -20 -20 -20 -20 -20 -20 -20 -20 -20 -20 -20 -20 -20
-20 -20 -20 -20 -20 -20 -20 -20 -20 -20 -20 -20 -20 -20 -20 -20 -20 -20 -20 -20 -20 -5 -5 -20 -20 -20 -20 -20 -20 -20 -20 -20 -20 -20 -20 -20 -20 -20
-20 -20 -20 -20 -20 -20 1 -17 -20 -20 -20 -20 -20 -20 -20 -20 -20 -20 -20 -20 -20 -20 -20 -20 -20 -20 -20 -20 -20 -20 -20 -20 -20 -20 -20 -20 -20 -20
-20 -20 -20 -20 -20 -10 -16 -20 -20 -18 -20 -20 -20 -20 -20 -20 -20 -20 -20 -20 -20 -20 -20 -20 -20 -20 -20 -20 -20 -20 -20 -20 -20 -20 -20 -20 -20 -20
-20 -20 -20 -20 -20 -19 3 -14 -20 -20 -20 -20 -20 -20 -20 -20 -20 -20 -20 -20 -20 -20 -20 -20 -20 -20 -20 -20 -20 -20 -20 -20 -20 -20 -20 -20 -20 -20
-20 -20 -20 -20 -20 -5 -20 -20 -20 -20 -20 -20 -20 -20 -20 -20 -20 -20 -20 -18 -20 -20 -20 -20 -20 -20 -20 -20 -20 -20 -20 -20 -20 -20 -20 -20 -20 -20
-20 -20 -20 -20 -20 4 -10 -3 -20 -20 -20 -20 6 0 4 -12 -12 14 -13 -18 -20 -20 -20 -20 -20 -20 -20 -20 -20 -20 -20 -20 -20 -20 -20 -20 -20 -20
-20 -20 -20 -18 17 16 -7 -20 -20 -20 -20 -20 -20 -20 -20 -20 -20 -20 -20 3 -13 -20 -20 -20 -20 -20 -20 -20 -20 -20 -20 -20 -20 -20 -20 -20 -20 -20
-3 -9 -3 -12 -2 9 8 -9 -20 -11 -0 -20 -20 -20 -20 -20 -20 -20 -20 -20 -14 -20 -17 -2 -20 -20 -20 -20 -20 -20 -20 -20 -20 -20 -20 -20 -20 -20
3 -3 -20 14 -4 -12 -4 5 8 -10 -20 -20 -20 -20 -20 -20 -20 6 11 -17 -20 -17 -17 -19 -4 -20 -20 -20 -20 -20 -20 -20 -20 -20 -20 -20 -20 -20
-19 -11 10 -15 -18 -20 9 5 -20 -18 -4 -14 -20 -12 -12 -18 -20 -20 -20 -19 -20 -20 -20 -19 12 -1 -15 -20 -20 -20 -20 -20 -20 -20 -20 -20 -20 -20
-20 -19 -20 -20 -20 8 -20 -20 -20 -20 -3 -13 -20 -20 -20 -20 -20 -20 -20 -20 -17 -20 -20 -20 -15 5 3 -20 -18 -20 -20 -20 -20 -20 -20 -20 -14 -20
-20 -20 -20 -20 -20 -16 -20 -20 -20 -20 -20 -20 -20 -20 -20 -20 -20 -20 -19 -20 -19 -20 -20 -20 -16 -20 -20 -20 -15 -20 -20 -20 -20 -20 -20 -20 -20 -20
-20 -20 -17 -20 -20 -16 -20 -20 -20 1 -20 -20 -20 -20 -20 -20 -20 -20 -20 -20 -20 -20 -20 -20 -20 -20 -20 -20 -17 -20 -20 -20 -20 -15 -20 -20 -20 -20
-20 -20 -20 -20 -20 -20 -20 -20 -20 1 -20 -20 -20 -20 -20 -20 -20 -20 -20 -20 -20 -20 -11 -3 5 -20 -20 -20 -20 -20 0 -20 -20 -20 -20 -20 -20 -20
-20 -20 -20 -20 -20 -20 -20 -20 -20 -20 -20 -20 -20 -20 -20 -20 -20 -20 -20 -20 -20 -20 -20 -20 -20 -20 -20 -20 -20 -20 -20 -20 -20 -20 -20 -20 -20 -18
-20 -20 -20 -14 -20 -20 -20 -20 -20 -20 -20 -20 -20 -20 -20 -20 -20 -20 -20 -20 -20 -20 -20 -20 -20 -20 -20 -20 -18 -20 -20 -20 -20 -20 -20 -20 -20 -20
-20 -20 -20 -20 -20 -20 -20 -20 -20 -20 -20 -20 -20 -20 -20 -20 -20 -15 -20 -20 -20 -20 -20 -20 -20 -20 -20 -20 -20 -20 -20 -20 -20 -20 -20 -20 -20 -20
-20 -20 -20 -20 -20 -20 -20 -20 -20 -20 -20 -20 -20 -20 -20 -20 -20 -20 -20 -20 -20 -20 -20 -20 -20 -20 -20 -20 -20 -20 -20 -20 -20 -20 -20 -20 -20 -20

GFSNE_prec_radar_012.txt.gz
Reflectivity
-20 -20 -18 -20 -12 13 18 13 10 22 -1 12 -20 -20 -20 -20 -20 -18 -20 -20 19 21 16 28 35 30 -1 -20 -20 -20 -20 -20 -20 -20 -20 4 -20 -20
-20 -20 -20 -20 -20 -20 -20 3 11 16 15 -20 -20 -20 -20 -20 -20 -20 -8 -20 12 27 19 21 5 9 36 29 -5 -20 -20 -20 -20 -20 -20 -20 -20 -20
-20 -20 -20 -20 -20 -20 -20 -20 -20 2 9 -20 -6 -14 -20 -20 -20 -20 -20 -20 12 30 31 32 16 26 23 28 28 22 -17 -20 -20 -20 -20 -20 -20 -20
-20 -20 -20 -20 -20 -20 -20 -20 -20 -20 -20 -20 -20 -20 -20 -20 -20 -20 -20 -20 -11 18 32 34 32 25 18 15 12 20 20 -8 -20 -20 -20 -20 -20 -20
-20 -20 -20 -20 -20 -20 -20 -20 -20 -20 -20 -20 -20 -20 -20 -20 -20 -20 -20 -20 -20 12 20 28 22 32 26 10 8 6 0 -20 -20 -20 -20 -20 -20 -20
-20 -20 -20 -20 -20 -20 -20 -20 -20 -20 -20 -20 -20 -20 -20 -20 -20 -20 -20 -20 -20 -18 -1 6 17 14 20 17 2 -20 -20 -20 -20 -20 -20 -20 -20 -20
-20 -20 -20 -20 -20 -20 -9 -20 4 8 -20 -20 -20 -20 -20 -20 -20 -20 -20 -20 -20 -20 -20 -20 -20 -10 5 -10 -20 -20 -20 -20 -20 -20 -20 -20 -20 -20
-20 -20 -20 -20 -20 -20 -20 2 10 -4 -14 6 1 -20 -20 -20 -20 -20 -20 -20 -20 -20 -20 -20 -20 -20 -20 -20 -20 -20 -20 -20 -20 -20 -20 -20 -20 -20
-20 -20 -20 -20 -20 -20 -20 -20 -20 -20 9 -13 -5 -20 -20 -20 -20 -20 -20 -20 -20 -20 -20 -20 -20 -20 -20 -20 -20 -20 -20 -20 -20 -20 -20 -20 -20 -20
-20 -20 -20 -20 -20 -20 -7 5 -12 -20 -20 -19 -20 -20 -20 -20 -20 -20 -20 -20 -20 -20 -20 -20 -20 -20 -20 -20 -20 -20 -20 -20 -20 -20 -20 -20 -20 -20
-20 -20 -20 -20 1 10 -12 -16 -20 -20 -20 -12 16 9 13 13 8 -20 -10 1 -20 -20 -20 -20 -20 -20 -20 -20 -20 -20 -20 -20 -20 -20 -20 -20 -20 -20
-20 -20 -15 -4 -1 16 15 4 -20 -20 -20 -20 -20 -20 -20 -20 -20 -20 -20 -20 -17 -20 -20 -20 -20 -20 -20 -20 -20 -20 -20 -20 -20 -20 -20 -20 -20 -20
-20 -14 -20 -13 5 5 10 -10 -8 -5 -16 -0 -20 -20 -20 -20 -20 -20 -20 -20 -20 -20 -20 -20 -20 -20 -20 -20 -20 -20 -20 -20 -20 -20 -20 -20 -20 -20
-2 -8 -17 5 8 7 -7 7 -7 -20 -20 -20 -20 -20 -20 -20 -20 -20 -20 -20 -20 -20 -20 -20 -20 -20 -20 -20 -20 -20 -20 -20 -20 -20 -20 -20 -20 -20
-20 4 -6 -15 -18 -1 -2 -0 -20 -20 -20 -20 -20 -19 -20 -20 -20 -20 -20 -20 -20 -20 -20 -20 -20 -20 -20 -20 -20 -20 -20 -20 -20 -20 -20 -20 -20 -20
-20 -20 -20 -20 -20 -16 -20 -20 -20 -20 -20 -20 -20 -20 -20 -20 -20 -20 -20 -20 -20 -20 -20 -20 -20 -20 -20 -20 -20 -20 -20 -20 -20 -20 -20 -20 -20 -20
-20 -20 -20 -20 -20 -20 -20 -20 -20 -20 -20 -20 -20 -20 -20 -20 -20 -20 -11 -19 -20 -20 -20 -20 -20 -20 -20 -10 -20 -20 -20 -20 -20 -20 -20 -20 -20 -20
-20 -20 -20 -20 -20 -20 -20 -20 -20 -11 -20 -20 -20 -20 -20 -20 -20 -20 -20 -20 -20 -20 -20 -20 -20 -20 -19 -20 -20 -20 -20 -20 -20 -20 -20 -20 -20 -20
-20 -20 -20 -20 -20 -20 -20 -20 -20 -20 -20 -20 -20 -20 -20 -20 -20 -20 -20 -20 -20 -20 -20 -20 -20 -19 -20 -20 -20 -20 -20 -20 -20 -20 -20 -20 -20 -20
-20 -20 -20 -20 -20 -8 -20 -20 -20 -20 -20 -20 -20 -20 -20 -20 -20 -20 -20 -20 -20 -20 -20 -20 -20 -20 -20 -20 -20 -20 -20 -20 -20 -20 -20 -20 -20 -15
-20 -20 -20 -20 -20 -20 -20 -20 -20 -20 -20 -20 -20 -20 -20 -20 -20 -20 -20 -20 -20 -20 -20 -20 -20 -20 -20 -20 -20 -20 -20 -20 -20 -20 -20 -20 -20 -20
-20 -20 -20 -20 -20 -20 -20 -20 -20 -20 -20 -20 -20 -20 -20 -20 -20 -20 -20 -20 -20 -20 -20 -20 -20 -20 -20 -20 -20 -20 -20 -20 -20 -20 -20 -20 -20 -20
-20 -20 -20 -20 -20 -20 -20 -20 -20 -20 -20 -20 -20 -20 -20 -20 -20 -20 -20 -20 -20 -20 -20 -20 -20 -20 -20 -20 -20 -20 -20 -20 -20 -20 -20 -20 -20 -20

GFSNE_prec_radar_015.txt.gz
Reflectivity
-20 -20 -20 -20 -20 -20 -20 -20 11 0 -20 -20 -20 -20 -20 -19 -20 -20 -20 -20 -20 -20 -20 -20 -0 23 11 26 20 -19 -20 -20 -17 -20 6 -20 2 -1
-20 -20 -20 -20 -20 -20 -20 -20 -20 -12 -3 -20 -20 -20 -20 -20 -3 -20 -20 -20 -20 -20 -20 -20 5 14 17 -7 12 -14 -10 -20 -20 -20 -20 -20 -20 -20
-20 -20 -20 -20 -20 -20 -20 -20 -20 -20 -20 -20 -20 -20 -20 -20 -20 -20 -20 -20 -20 -20 -20 -20 12 30 21 30 26 24 20 1 -20 -20 -20 -20 -20 -20
-20 -20 -20 -20 -20 -20 -20 -20 -20 -20 -20 -20 -20 -20 -20 -20 -20 -20 -20 -20 -20 -20 -20 -19 23 34 36 33 35 22 25 16 11 -20 -20 -20 -20 -20
-20 -20 -20 -20 -20 -20 -20 -20 -20 -20 -15 -20 -20 -20 -20 -20 -20 -20 -20 -20 -20 -20 -20 -19 19 31 28 27 29 13 19 28 -11 -2 -19 -20 -20 -20
-20 -20 -20 -20 -20 -20 -20 -20 -5 -4 -7 -17 6 -20 -20 -20 -20 -20 -20 -20 -20 -20 -20 -20 18 21 27 25 12 12 -1 21 11 9 16 3 -19 -20
-20 -20 -20 -20 -20 -20 -15 -2 -3 1 14 11 10 6 -12 -20 -20 -20 -20 -20 -20 -20 -20 -20 -1 12 15 24 21 29 25 18 20 21 22 20 11 -19
-20 -20 -20 -20 -20 -20 -4 3 8 9 11 13 -20 9 2 -20 -20 -20 -20 -20 -20 -20 -20 -20 -20 -14 12 -17 17 25 15 15 11 15 14 3 -20 -20
-20 -20 -20 -20 -20 -20 -20 -20 -20 -20 13 11 7 -17 -20 -9 -20 -20 -20 -20 -20 -20 -20 -20 -20 -20 -19 -6 4 -19 5 2 13 8 -4 -12 -20 -20
-20 -20 -13 -20 -6 5 2 -14 -20 -20 -20 -20 4 -11 -20 -20 -20 -20 -20 -20 -20 -20 -20 -11 -20 -20 -20 -20 -20 -13 -13 -18 -18 -14 -20 -20 -20 -20
-20 -20 -3 -13 -20 14 10 3 4 -20 -20 -20 -20 -16 20 -7 8 0 -19 -9 -20 -20 -20 -20 -20 -20 -20 -20 -20 -20 -20 4 -20 -20 -20 -20 -20 -20
-20 -20 -20 2 10 10 14 -2 -20 -20 -20 -20 -20 -20 -20 -20 -20 -20 -20 -20 -20 -20 -20 -20 -20 -20 -20 -20 -20 -20 -20 -20 -20 -20 -20 -20 -20 -20
-20 -16 -20 7 11 11 2 7 8 1 -11 -9 -20 -20 -20 -20 -20 -20 -20 -20 -20 -20 -20 -20 -20 -20 -20 -20 -20 -20 -20 -20 -20 -20 -20 -20 -20 -20
-20 -20 -16 4 7 1 -9 11 -1 -20 -20 -20 -20 -20 -20 -20 -20 -20 -20 -19 -20 -20 -20 -20 -20 -20 -20 -20 -20 -20 -20 -20 -20 -20 -20 -20 -20 -20
-20 -5 -7 -19 -20 -20 -18 -4 -20 -20 -20 -20 -20 -20 -20 -20 -19 -20 -20 -20 -20 -20 -20 -20 -20 -20 -20 -20 -20 -20 -20 -20 -20 -20 -20 -20 -20 -20
-20 -20 -20 -20 -20 -20 -20 -20 -20 -20 -19 -20 -20 -20 -20 -20 -20 -17 -18 -20 -20 -20 -20 -20 -20 -20 -20 -20 -20 -20 -20 -20 -20 -20 -20 -20 -20 -20
-20 -20 -20 -20 -20 -20 -20 -20 -20 -20 -20 -20 -20 -20 -20 -20 -14 -8 7 7 -14 -20 -20 -14 -20 -20 -20 -3 -20 -20 -20 -20 -20 -20 -20 -20 -20 -20
-20 -20 -20 -20 -20 -20 -20 -20 -20 -20 -20 -20 -20 -20 -20 -20 -20 -20 -20 -20 -20 -20 -20 -20 -20 -20 -9 -15 -3 -18 -20 -20 -20 -20 -20 -20 -20 -20
-20 -20 -20 -20 -20 -20 -20 -20 -20 -20 -20 -20 -20 -20 -20 -20 -20 -20 -20 -20 -20 -20 -20 -20 -20 -14 -17 -20 -20 -20 -20 -20 -20 -20 -20 -20 -20 -20
-20 -20 -20 -20 -20 -20 -20 -20 -20 -20 -20 -20 -20 -20 -20 -20 -20 -20 -20 -20 -20 -20 -20 -20 -20 -20 -20 -20 -20 -20 -20 -20 -20 -20 -20 -20 -20 -20
-20 -20 -20 -20 -20 -20 -20 -20 -20 -20 -20 -20 -20 -20 -20 -20 -20 -20 -20 -20 -20 -20 -20 -20 -20 -20 -20 -20 -20 -20 -20 -20 -20 -20 -20 -20 -20 -20
-20 -20 -20 -20 -20 -20 -20 -20 -20 -20 -20 -20 -20 -20 -20 -20 -20 -20 -20 -20 -20 -20 -20 -20 -20 -20 -20 -20 -20 -20 -20 -20 -20 -20 -20 -20 -20 -20
-20 -20 -20 -20 -20 -20 -20 -20 -20 -20 -20 -20 -20 -20 -20 -20 -20 -20 -20 -20 -20 -20 -20 -20 -20 -20 -20 -20 -20 -20 -20 -20 -20 -20 -20 -20 -20 -20

GFSNE_prec_radar_021.txt.gz
Reflectivity
-20 -20 -20 -20 -20 -20 -20 -20 -20 9 -11 -20 -20 -20 -20 -20 -20 -20 -20 -20 -20 -20 -20 -20 -20 -20 -20 -20 -20 -20 -20 -20 -1 -20 19 14 1 12
-20 -20 -20 -20 -20 -20 -20 -20 -20 -20 -6 -20 -20 -20 -20 -20 -20 -20 -20 -20 -20 -20 -20 -20 -20 -20 -20 -20 -20 -20 -20 -11 -20 -17 -20 -12 21 -4
-20 -20 -20 -20 -20 -20 -20 -20 -20 -20 -20 -20 -20 -20 -20 -20 -20 -20 -20 -20 -20 -20 -20 -20 -20 -20 -20 -20 -20 -20 -20 -19 -20 11 -20 22 24 13
-20 -20 -20 -20 -20 -20 -20 -20 -20 -20 0 -18 -20 -20 0 -1 -1 -7 -20 -20 -20 -20 -20 -20 -20 -20 -20 -20 -20 -20 -7 19 -8 6 22 -18 4 -9
-20 -20 -20 -20 -20 -20 -20 -4 0 -0 1 2 -14 -20 -16 -15 10 8 7 -3 -20 -20 -20 -20 -20 -20 -20 -20 -20 -20 -14 -20 -20 -18 35 27 20 25
-20 -20 -20 -20 -20 -20 -8 -1 -1 7 5 8 5 1 2 -19 7 13 11 8 -9 -15 -20 -20 -20 -20 -9 5 -20 -20 -20 8 -18 -19 -15 33 39 31
-20 -20 -20 -20 -20 -20 -2 -0 1 4 7 11 8 -0 -4 3 5 8 11 11 18 -10 -20 -20 -20 -10 17 -18 10 -20 -20 14 -4 -20 -20 -20 -20 -17
-20 -20 -20 -20 -20 -12 -20 0 2 11 16 12 9 16 15 12 10 8 17 8 12 17 -20 -20 -20 -20 -20 -20 2 -3 -20 23 31 22 18 -6 -20 -20
-20 -20 -20 -20 -20 -2 -2 -4 8 6 5 10 14 11 9 8 9 16 12 10 9 14 -20 -20 -20 -20 -20 -20 -20 -20 18 34 31 21 26 -4 6 9
-20 -20 -20 -6 -3 0 13 9 5 2 8 12 15 15 12 11 10 15 16 12 7 6 3 4 -17 -20 -20 -20 -20 -20 23 31 34 33 30 25 17 -1
-20 -20 -19 -7 -1 10 8 9 3 2 2 0 4 12 13 13 12 10 9 13 7 2 -12 3 -1 8 5 -20 -20 -20 22 30 27 36 25 23 16 -4
-20 -20 -20 -0 5 2 -0 6 5 9 4 5 4 10 8 9 -6 4 2 14 13 18 11 13 9 10 4 -20 -20 -20 -20 9 26 -1 8 -12 -20 -20
-20 -20 -20 -1 -11 -4 -2 5 10 1 4 4 4 4 5 8 12 12 5 -20 -3 8 5 7 7 8 5 7 -3 -20 -20 -20 -20 -20 -20 -20 -15 -11
-20 -20 -18 -20 -20 -20 -6 0 -20 -16 2 2 3 5 3 3 3 4 13 11 1 -20 -13 -20 -1 3 2 4 3 -11 -6 -20 -20 -20 -20 -20 -20 -13
-20 -20 -20 -20 -20 -20 -20 -20 -20 -20 -1 1 -1 -2 -4 -3 2 11 6 0 10 1 -20 -20 -2 -1 4 8 4 -7 4 -20 -20 -20 -20 -20 -20 -20
-20 -20 -20 -20 -20 -20 -20 -20 -20 -20 -20 0 -3 -3 -20 -4 3 7 10 10 9 6 3 11 9 7 8 6 -0 -4 6 15 -10 -20 -20 -18 -18 -20
-20 -20 -20 -20 -20 -20 -20 -20 -20 -20 -20 -20 -14 -20 -20 -20 -3 -5 1 7 10 8 10 10 11 9 7 -4 6 1 5 0 9 15 -14 -6 -9 15
-20 -20 -20 -20 -20 -20 -20 -20 -20 -20 -20 -20 -20 -20 -20 -9 -2 -0 -8 -1 -1 1 3 3 14 8 9 12 16 20 8 5 -6 6 6 6 6 11
-20 -20 -20 -20 -20 -20 -20 -20 -20 -20 -20 -20 -20 -20 -20 -19 -1 0 -0 0 -20 -20 -19 -2 1 10 15 18 -3 -19 19 9 7 1 4 -13 -20 3
-20 -20 -20 -20 -20 -20 -20 -20 -20 -20 -20 -20 -20 -20 -20 -8 -1 -3 1 -6 -20 -20 -20 -20 -13 -20 -16 4 12 -3 -20 0 -5 -11 -14 -0 3 -19
-20 -20 -20 -20 -20 -20 -20 -20 -20 -20 -20 -20 -20 -20 -20 -20 -20 -20 -20 -20 -20 -20 -20 -20 -20 -20 -20 -20 4 5 -10 -20 -20 -5 5 7 7 1
-20 -20 -20 -20 -20 -20 -20 -20 -20 -20 -20 -20 -20 -20 -20 -20 -20 -20 -20 -7 -20 -20 -20 -20 -20 -20 -3 5 1 -2 2 -2 -20 -20 -20 -19 3 4
-20 -20 -20 -20 -20 -20 -20 -20 -20 -20 -20 -20 -20 -20 -20 -20 -16 -20 -20 -20 -20 -20 -20 -20 -20 -20 -20 -20 -20 5 -0 -16 0 2 3 -20 -20 -20

GFSNE_prec_radar_024.txt.gz
Reflectivity
-17 -20 -19 -1 -20 -20 -20 -2 12 15 -18 -20 -20 -20 -20 -20 -20 -20 -20 -20 -20 -20 -20 -20 -20 -20 -20 -20 -20 -20 -20 -5 -20 -18 -19 8 12 9
-20 -20 -10 -13 -20 -20 -20 -20 3 -2 1 -20 -20 -20 -20 -20 -20 -20 -20 -20 -20 -20 -20 -20 -15 -20 -20 -20 -20 -20 -20 -1 -20 -20 -20 -6 2 3
-19 -13 -18 -20 -20 -20 -20 -20 -20 -20 -3 -20 -20 -20 -20 -20 -20 -18 -19 -20 -20 -20 -13 -20 -20 -20 -20 -20 -20 -20 -20 -16 -20 -20 -20 -20 -20 18
-19 -20 -20 -20 -20 -20 -20 -20 -20 -20 -5 -17 -20 -20 -20 -20 -20 -20 -20 -20 -20 -18 11 -20 -20 -20 -20 -20 -20 -20 -20 -20 -20 -20 -20 -20 -20 19
-20 -1 -20 -20 -20 -20 -20 -20 -20 -20 3 5 1 -19 -15 -20 -20 -13 -18 -15 -20 -20 2 -20 -20 -20 -20 -20 -20 -20 -20 -20 -20 -20 -20 -20 -6 21
-20 -20 -20 -20 -20 -20 -20 -20 -20 0 4 4 -9 -2 5 -10 -18 5 -3 -12 1 12 9 -10 -20 -20 -20 -20 -20 -20 -20 -20 -20 -12 -13 15 12 25
-20 -20 -20 -20 -20 -20 -20 -11 -2 0 5 7 9 8 4 -9 17 15 13 3 -20 -16 18 17 -9 -8 8 -20 -20 -20 -6 -16 -17 -16 -16 8 22 35
-20 -20 -20 -20 -20 -20 -11 -2 -8 3 10 1 13 0 -5 9 10 16 14 15 10 13 23 17 21 -20 -15 4 -18 -20 -20 -20 -11 -18 -20 -20 16 37
-20 -20 -20 -20 -20 -20 -18 -15 -7 5 -12 7 11 16 11 18 17 18 16 14 18 2 7 18 15 -0 -20 -17 -20 -20 -20 -20 -17 19 -20 -20 9 17
-20 -20 -20 -20 -20 -13 2 3 4 -0 -12 -11 4 -4 -10 -4 4 16 16 10 -5 -11 -20 14 7 15 -2 -6 -20 -20 -20 -20 18 24 4 -20 -17 11
-20 -20 -20 -20 -20 -4 -2 -0 -1 -20 -3 -18 -20 -18 -20 -20 -14 12 13 11 16 14 -14 15 15 -20 -20 1 -7 -20 -20 -19 18 31 32 25 -0 16
-20 -20 -20 -20 -20 -20 -6 -1 5 6 -2 -16 0 5 5 12 -19 -2 8 9 10 14 18 15 15 10 8 2 3 -11 -20 -19 30 29 34 32 21 12
-20 -20 -20 -20 -20 -20 -20 -1 3 -2 1 3 5 7 8 8 13 16 21 13 11 -9 -0 1 13 15 17 9 17 0 -20 1 26 31 37 33 27 15
-20 -20 -20 -20 -20 -20 -20 -20 -20 -16 3 6 8 8 6 7 8 9 9 14 16 -1 -10 11 10 6 7 2 12 13 3 -20 6 13 8 -11 -18 -13
-20 -20 -20 -20 -20 -20 -20 -20 -20 -19 1 4 4 4 1 5 8 15 14 16 8 11 4 6 7 5 11 9 12 12 11 2 1 7 5 5 5 -17
-20 -20 -20 -20 -20 -20 -20 -20 -20 -20 -8 5 4 2 0 3 7 8 12 21 14 13 -16 -14 2 5 15 13 9 10 12 18 1 4 9 10 5 4
-20 -20 -20 -20 -20 -20 -20 -20 -20 -20 -20 -0 3 5 1 -1 -0 8 3 5 16 14 15 22 4 15 13 18 12 7 3 9 -4 16 10 10 7 9
-20 -20 -7 -5 -20 -20 -20 -20 -20 -20 -20 -20 -1 2 3 3 1 4 4 5 10 9 14 8 25 8 10 7 -2 18 3 12 10 -2 -10 -0 9 12
-1 -0 1 2 -19 -20 -20 -20 -20 -20 -20 -20 -20 -5 -3 1 6 5 4 1 2 1 3 9 6 22 15 14 -8 -20 17 13 10 13 14 7 -15 -7
-20 2 1 -0 -20 -20 -20 -20 -20 -20 -20 -20 -20 -20 -4 -4 -0 1 4 4 1 -12 -5 -0 3 -2 8 21 15 3 -20 15 13 16 14 12 10 -20
2 1 -1 0 -2 -20 -15 -18 -20 -20 -20 -20 -20 -20 -20 -20 -20 -9 2 -0 -18 -4 -6 -5 -20 -20 -6 -7 11 7 -10 -20 -15 3 10 10 12 10
2 3 -0 -1 0 1 1 3 0 -20 -20 -20 -20 -20 -7 -8 -20 -20 -2 -2 -3 -2 -19 -7 -20 -20 5 6 12 -13 7 1 -20 -20 -20 -19 3 15
6 -0 4 0 0 2 2 3 1 1 -19 -20 -20 -20 -20 -4 -20 -20 -20 -20 -20 -20 -20 -2 4 4 6 -3 -11 9 8 7 8 2 -4 -20 -20 -20

GFSNE_prec_radar_030.txt.gz
Reflectivity
-20 -20 10 -20 -7 11 -20 -20 -18 6 -20 -20 -20 -20 -20 -20 -20 -20 -20 -20 -20 -20 -20 -20 -20 -20 -20 -20 -20 -20 1 5 -20 -20 -20 -20 -20 16
-20 1 15 14 -19 -20 -20 -20 -20 -17 -20 -20 -20 -20 -20 -20 -20 -20 -20 -20 -20 -20 -20 -20 -14 -20 -20 -20 -20 -20 -20 -8 -20 -20 -20 -20 -20 1
-20 -19 -1 19 -20 -20 -20 -20 -20 -20 -20 -20 -20 -20 -20 -20 -20 -20 -20 -20 -20 -20 -9 -20 -20 -17 -14 -20 4 -20 -20 -20 -20 -20 -20 -20 -20 -4
-20 -19 -18 -18 -20 -20 -20 -20 -20 -20 -20 -20 -20 -20 -20 -20 -20 -20 -20 -20 -20 -20 -20 -20 -20 -20 -20 -15 13 -20 -20 -20 -20 -20 -20 -20 -20 6
-20 -20 -20 -20 -20 -20 -20 -20 -20 -20 -20 -20 -20 -20 -20 -20 -20 -20 -20 -20 -20 -20 -14 -18 -20 14 6 13 10 -20 -20 -20 -20 -20 -20 -20 -20 -20
-20 -20 -20 -20 -20 -20 -20 -20 -20 -20 -20 -20 -20 -20 -20 -20 -4 -10 -6 -20 -20 -20 -20 -19 -20 -9 15 -20 -20 -20 -20 -20 -20 -20 -20 -20 -20 -20
-20 -20 -20 -20 -20 -20 -20 -20 -20 -20 -20 -20 -20 -20 -20 -20 -20 5 8 -18 -20 -20 -20 -20 -20 -20 -20 -18 -20 -20 1 -16 -20 -20 -20 -20 -20 -20
-20 -20 -20 -20 -20 -20 -20 -20 -20 -20 -20 -20 -20 -20 -20 2 4 -8 -20 -20 -8 -20 -20 -20 -20 -20 -20 39 32 -4 31 36 10 -20 -20 -20 -20 -20
-20 -20 -20 -20 -20 -20 -20 -20 -20 -20 -20 -12 -1 3 3 -20 -20 -20 -20 -20 -20 -20 -20 -20 -20 -20 -20 7 -13 -20 0 -16 -20 -20 -20 -20 5 -20
-20 -20 -20 -20 -20 -20 -20 -20 -20 -20 -20 -20 -20 -20 -20 -20 -20 -20 -20 -20 -20 -20 -20 -9 -20 -20 -20 -20 -20 -20 -20 -20 -20 -20 -20 11 15 -20
-20 -20 -20 -20 -20 -20 -20 -20 -20 -20 -20 -20 -20 -20 -20 -20 -2 -7 -13 -20 -20 -20 -20 -16 -13 -0 -20 -20 -20 -20 -20 -20 -20 -20 -20 24 22 -20
-20 -20 -20 -20 -20 -20 -20 -20 -20 -20 -20 -20 -20 -20 -20 -18 10 9 7 2 16 -1 -17 6 -20 7 -20 -20 -2 22 -20 -20 -20 -20 3 20 26 -17
-20 -20 -20 -20 -20 -20 -20 -20 -20 -20 -20 -20 -16 -20 -16 -3 -20 -20 -20 7 5 14 -20 11 -20 -20 -20 -20 -19 7 3 -18 -20 -12 1 21 31 7
-20 -20 -20 -20 -20 -20 -20 -20 -20 -20 -20 -20 -20 -20 -20 -20 -13 -20 -20 -20 -13 14 -1 -15 -15 -20 -20 -20 -20 -20 5 16 7 -15 10 26 34 33
-20 -20 -20 -20 -20 -20 -20 -20 -20 -20 -20 -20 -20 -14 -20 -20 -18 -20 -20 -20 -15 22 14 -20 -20 -20 -20 -20 -20 -20 -20 -1 1 20 27 26 31 34
-20 -20 -20 -20 -20 -20 -20 -20 -20 -20 -20 -20 -20 -20 -20 -15 -20 -13 -20 -20 -20 -20 -20 21 11 -12 -20 -20 -20 -20 -20 4 19 17 32 31 38 39
-20 -20 -20 -20 -20 -20 -20 -20 -20 -20 -20 -20 -20 -20 -20 -20 -20 -20 -20 -20 -17 -20 -20 -19 -13 10 -20 -20 -20 -20 -9 -20 13 29 4 6 13 10
-20 -20 -20 -20 -20 -20 -20 -20 -20 -20 -20 -20 -20 -20 -16 -20 -20 -20 -2 4 -20 -20 -20 -20 -9 -16 16 -20 -20 -20 -10 -20 -20 -20 -20 -18 10 -20
-20 -20 -20 -20 3 -20 -20 -20 -20 -20 -20 -20 -20 -20 -20 -6 -20 -20 -20 -19 -20 -20 -20 -20 5 -20 -20 -3 14 -20 -20 -20 -20 -20 -20 -20 -0 -0
-20 -20 -20 -20 -20 -20 -20 -20 -20 -20 -20 -20 -20 -20 -17 -16 -15 -6 -20 -20 -20 -20 -17 -20 -16 -20 -20 12 15 -18 -20 20 8 -20 -20 -20 -20 -20
-20 -20 -20 -20 -20 -20 -20 -20 -20 -20 -20 -20 -20 -20 -7 -3 -20 -11 -20 -20 -20 -20 -20 -20 -20 -20 -20 -20 -2 -11 -20 -20 -20 -20 -20 -20 -20 -20
-20 -14 -20 -16 -14 -7 -20 -20 -20 -20 -20 -20 -20 -20 -18 -20 -20 -16 -20 -20 -20 -20 -20 -20 -20 -20 -20 12 6 -17 -20 -20 -20 -20 -20 -20 -20 -1
-20 -20 -20 -20 -20 -7 -20 -20 -15 -19 -20 -20 -20 -20 -20 -20 -20 -7 -4 4 -20 -20 -20 -20 -20 -20 4 1 -20 -7 -20 -20 -20 -20 -20 -20 -20 -20

GFSNE_prec_radar_033.txt.gz
Reflectivity
-20 -20 -20 -20 -20 -7 7 10 -10 -8 -20 -20 -20 -20 -20 -20 -20 -20 -20 -20 -20 -20 -20 -20 -20 -20 -20 -20 -17 -9 10 -20 -20 -20 19 5 4 -20
-20 -20 -20 -20 -20 -5 29 8 -20 -20 -20 -20 -20 -20 -20 -20 -20 -20 -20 -20 -20 -20 -20 -20 -20 -20 -20 -20 -20 -20 -20 -20 -20 -2 5 -20 -14 -20
-20 -20 -20 -14 -6 -13 -17 -20 -20 -20 -20 -20 -20 -20 -20 -20 -20 -20 -20 -20 -20 -20 -20 -20 -20 -20 -20 -2 -20 -20 -20 -20 -20 -20 -20 -20 -20 -20
-20 -20 -20 -20 -20 -20 -20 -20 -20 -20 -20 -20 -20 -20 -20 -20 -20 -20 -20 -20 -20 -20 3 -20 -20 -6 -20 8 -20 -9 9 13 -0 -20 -20 -20 -20 -20
-20 -20 -20 -20 -20 -20 -20 -20 -20 -20 -20 -20 -20 -20 -20 -20 -20 -20 -20 -20 -20 -20 -20 -20 -20 -20 -20 -20 -20 -20 -20 -20 -20 -5 -20 -20 -20 -20
-20 -20 -20 -20 -20 -20 -20 -20 -20 -20 -20 -20 -20 -20 -20 -20 -20 -20 -12 -20 -20 -20 -20 -20 -20 -20 -20 -20 -20 -20 -20 12 7 -12 -20 -20 -20 -20
-20 -20 -20 -20 -20 -20 -20 -20 -20 -20 -20 -20 -20 -20 -20 -20 -20 9 -20 -20 -20 -20 -20 -20 -20 -20 -20 -20 -20 -20 -6 -10 -20 -17 -16 -8 -20 -20
-20 -20 -20 -20 -20 -20 -20 -20 -20 -20 -20 -20 -20 -20 -20 6 0 -20 -20 -20 -20 -20 -20 -20 -20 -20 -20 -20 -20 17 27 8 18 -19 -20 -20 -20 -20
-20 -20 -20 -20 -20 -20 -20 -20 -20 -20 -20 -20 -20 -20 -20 -20 -20 -20 -20 -20 -20 -20 -18 -20 -20 -20 -20 -20 -20 -2 20 12 -16 -19 -20 -20 -20 -20
-20 -20 -20 -20 -20 -20 -20 -20 -20 -20 -20 -20 -20 -20 -20 -20 -18 -20 -20 -20 -20 -20 -20 -2 -20 -20 -20 -20 -20 -20 -20 7 -10 -20 -20 -20 -20 -20
-20 -20 -20 -20 -20 -20 -20 -20 -20 -20 -20 -20 -20 -20 -20 -20 -16 11 6 6 -20 -20 -20 -3 -20 -20 -20 -20 -20 -20 -20 -20 -15 -14 -20 -20 -20 -0
-20 -20 -20 -20 -20 -20 -20 -20 -20 -20 -20 -20 -20 -20 -20 -20 -20 -15 -20 -4 -6 -18 -20 6 -20 -20 -20 -20 -20 -20 -20 -20 -20 -20 -20 -20 -16 -9
-20 -20 -20 -20 -20 -20 -20 -20 -20 -20 -20 -20 -20 -20 -20 -20 -20 -20 -20 -9 -3 -20 8 25 4 -20 -20 -20 -20 -13 -20 -4 1 -20 -20 -11 4 4
-20 -20 -20 -20 -20 -20 -20 -20 -20 -20 -20 -20 -20 -20 -20 -20 -20 -20 -20 -20 -20 -20 9 16 2 -20 -20 -20 -20 -20 -20 -16 -5 -10 0 17 19 21
-20 -20 -20 -20 -20 -20 -20 -20 -20 -20 -20 -20 -20 -20 -20 -20 -20 -20 -20 -20 -20 -20 -20 28 7 -12 -18 -2 -6 -20 -20 -13 1 -2 26 12 13 16
-20 -20 -20 -20 -20 -20 -20 -20 -20 -20 -20 -20 -20 -20 -20 -20 -20 -20 -20 -20 -20 -20 -20 -20 -20 -20 -19 -20 -20 -20 -20 -20 -5 10 28 26 27 28
-20 -20 -20 -20 -20 -20 -20 -20 -20 -20 -20 -20 -20 -20 -20 -20 -20 -20 -20 -20 -20 -20 -20 -20 -20 -20 -20 -19 -20 -20 -20 -20 -19 26 16 13 27 30
-18 -19 -20 -20 -20 -20 -20 -20 -20 -20 -20 -20 -20 -20 -20 -20 -20 -20 -20 -20 -20 -20 -20 -20 -17 -20 -20 -20 0 -20 -20 -20 -17 -8 -20 -9 8 13
-20 -20 -20 -20 -20 -20 -20 -20 -20 -20 -20 -20 -20 -20 -20 -20 -20 -20 -20 -20 -20 -20 -20 -20 -20 -20 -20 -20 12 -20 -20 -20 -20 -20 -20 -18 18 4
-20 -20 -20 -20 -20 -20 -20 -20 -20 -20 -20 -20 -20 -20 -20 -20 -20 -20 -20 -20 -20 -20 -20 -20 -20 -20 -20 -11 10 -20 -20 10 -19 -20 -20 -20 -18 -7
-20 -20 -20 -20 -20 -20 -20 -20 -20 -20 -20 -20 -20 -20 -20 -20 -20 -20 -20 -20 -20 -20 -20 -20 -20 -20 -20 8 -12 -20 -20 -7 -1 -4 -20 -20 -20 -20
-20 -20 -20 -20 -20 -20 -20 -20 -17 -20 -20 -20 -20 -20 -20 -20 -20 -20 -20 -20 -20 -20 -20 -20 -20 -20 -20 -14 -20 -20 -20 -20 -20 -20 -20 -20 -20 -20
-20 -20 -20 -20 -20 -20 -20 -20 -20 -20 -20 -20 -20 -20 -20 -20 -20 -20 -20 -20 -20 -20 -20 -20 -20 -20 -20 -20 -20 -19 -20 -20 -20 -20 -20 -20 -20 -20